This demonstration page uses our WeatherBlox Daily Observations layout. Learn more.

36.17497, -115.13722

Hourly Observations for September 19, 2019

Temp ( °F °C ) Dew Point ( °F °C ) Humidity (%) Winds ( mph kmh ) Pressure ( in mb ) Visibility ( mi km ) Precip ( " mm )
12:53 am 00:53 Clear 80 26.7 32 0 17 17 S 18 30 29.71 1006 10 16.09344 0 0
1:53 am 01:53 Clear 78 25.6 34 1.1 20 20 SE 16 26 29.71 1006 10 16.09344 0 0
2:53 am 02:53 Clear 78 25.6 34 1.1 20 20 VRB 3 6 29.71 1006 10 16.09344 0 0
3:53 am 03:53 Clear 75 23.9 36 2.2 24 24 SW 5 7 29.68 1005 10 16.09344 0 0
4:53 am 04:53 Clear 73 22.8 37 2.8 27 27 SE 10 17 29.68 1005 10 16.09344 0 0
5:53 am 05:53 Clear 73 22.8 38 3.3 28 28 SSE 6 9 29.68 1005 10 16.09344 0 0
6:53 am 06:53 Sunny 73 22.8 39 3.9 29 29 SSW 16 26 29.71 1006 10 16.09344 0 0
7:53 am 07:53 Sunny 76 24.4 38 3.3 25 25 S 20 31 29.71 1006 10 16.09344 0 0
8:53 am 08:53 Sunny 78 25.6 38 3.3 24 24 S 20 31 29.71 1006 10 16.09344 0 0
9:53 am 09:53 Sunny 80 26.7 37 2.8 21 21 S 28 44 29.71 1006 10 16.09344 0 0
10:53 am 10:53 Sunny 82 27.8 33 0.6 17 17 SSW 20 31 29.71 1006 10 16.09344 0 0
11:53 am 11:53 Sunny 84 28.9 29 -1.7 13 13 SSW 18 30 29.71 1006 10 16.09344 0 0
12:53 pm 12:53 Sunny 86 30 26 -3.3 11 11 SW 22 35 29.68 1005 10 16.09344 0 0
1:53 pm 13:53 Sunny 86 30 29 -1.7 13 13 SSW 20 31 29.65 1004 10 16.09344 0 0
2:53 pm 14:53 Sunny 87 30.6 28 -2.2 12 12 SSW 17 28 29.65 1004 10 16.09344 0 0
3:53 pm 15:53 Sunny 87 30.6 25 -3.9 10 10 SSW 13 20 29.65 1004 10 16.09344 0 0
4:53 pm 16:53 Sunny 87 30.6 22 -5.6 9 9 WSW 15 24 29.65 1004 10 16.09344 0 0
5:53 pm 17:53 Sunny 84 28.9 25 -3.9 11 11 SW 17 28 29.62 1003 10 16.09344 0 0
6:53 pm 18:53 Clear 82 27.8 22 -5.6 11 11 SSW 14 22 29.65 1004 10 16.09344 0 0
7:53 pm 19:53 Clear 80 26.7 23 -5 12 12 SSW 16 26 29.65 1004 10 16.09344 0 0
8:53 pm 20:53 Clear 78 25.6 26 -3.3 15 15 SSW 16 26 29.68 1005 10 16.09344 0 0
9:27 pm 21:27 Clear 76 24.4 30 -1.1 18 18 W 21 33 29.62 1003 10 16.09344 0 0
9:53 pm 21:53 Clear 74 23.3 31 -0.6 20 20 NW 24 39 29.71 1006 10 16.09344 0 0
10:53 pm 22:53 Clear 73 22.8 30 -1.1 20 20 NW 23 37 29.74 1007 10 16.09344 0 0
11:53 pm 23:53 Clear 71 21.7 30 -1.1 22 22 NW 16 26 29.77 1008 10 16.09344 0 0

Powered by AerisWeather